COSMOS 1275 DEB

Satellite information

Favourite Embed

Satellite Type and Status

DEBRISIN ORBIT

Key statistics

Satellite COSMOS 1275 DEB at a glance.

Uptime

16263

Days in orbit

Revolutions

≈ 14.3

Per day

Orbit

LEO

Low Earth Orbit

Inclination

82.9

Latest

Satellite identification and parameters

Extended collection of information and parameters for COSMOS 1275 DEB.

Object identification

Identified? True

Debris? True

Object name: COSMOS 1275 DEB

International designator: 1981-053CM

Object number (NORAD): 12744

Object ID (CCSDS): 12744

Country: COMMONWEALTH OF INDEPENDENT STATES (CIS)

Current information (Y/N): Y

RCS size: SMALL

Orbital parameters

Period: 100.662 minutes

Inclination: 82.9276 deg

SMA: 7168.074 km

Apoapsis: 805.667 km

Periapsis: 774.211 km

RAAN: 252.8908 deg

Eccentricy: 0.00219418

Argument of periapsis: 334.0149 deg

Mean anomaly: 25.9935 deg

Mean motion: 14.30536709 rev/day

Mean motion (dot): 0.00006667 rev/day2

B* drag term: 0.0025445582 1/REarth

Two-line elements (TLE)

Creation date: Dec. 12, 2025, 10:14 a.m.

Reference frame: TEME

Reference center: EARTH

Epoch: Dec. 12, 2025, 5:23 a.m. UTC

TLE line 0: 0 COSMOS 1275 DEB

TLE line 1: 1 12744U 81053CM 25346.22477657 .00006667 00000-0 25446-2 0 9993

TLE line 2: 2 12744 82.9276 252.8908 0021942 334.0149 25.9935 14.30536709263372

Live tracking on map

Real-time ground track for satellite COSMOS 1275 DEB.

In-orbit conjunctions

A list of the most updated potential collisions computed for object COSMOS 1275 DEB.

Target Orbit TCA Probability of collision Miss distance Type
KITSAT B SSO 2025-03-04 08:19:47 0.0002916961 900.0 (m) PAYLOAD
CZ-6A DEB LEO 2024-12-29 20:41:01 0.000124488 722.0 (m) DEBRIS
CZ-11 R/B SSO 2024-07-22 15:13:21 0.0001233873 174.0 (m) ROCKET BODY

Associated space launch

Navigation satellite providing location information for the Tsiklon-B navigation system

COSMOS 1275 DEB was lifted into orbit during the mission ‘Kosmos-3M | Parus 27’, on board a Kosmos-3M space rocket.

The launch took place on June 4, 1981, 3:41 p.m. from 132/2.

For more information about the launch, click the button.

Launch to space Kosmos-3M | Parus 27
Kosmos-3M | Parus 27

Agency: N/A

Status: Launch Successful

Launch date: June 4, 1981, 3:41 p.m. UTC

Rocket: Kosmos-3M

Launch pad: 132/2

Location: Plesetsk Cosmodrome, Russian Federation

...

Latest news about this satellite

There are no fresh news available about this satellite. Check back as we update our databases every day.


Newsletter sign-up

Weekly statistics, charts and insights to help you stay on top of the space industry.